#timestamp,LO_Frequency,Hit,StdDev 
1457643615.9,286047002.5,P
1457643635.7,286047002.0,N
1457643655.5,286047002.6,N
1457643675.4,286047000.8,N
1457643695.2,286047001.8,N
1457643715.0,286047003.4,N
1457643715.9,286047003.4,N
1457643735.8,286047002.5,N
1457643755.6,286046999.8,N
1457643775.4,286046998.8,N
1457643795.2,286046998.6,N
1457643815.1,286046998.1,N
1457643816.0,286046998.1,N
1457643835.8,286046999.4,N
1457643855.6,286047001.0,N
1457643875.5,286047000.3,N
1457643895.3,286047001.1,N
1457643915.1,286046999.1,N
1457643935.9,286047000.9,N
1457643955.7,286046996.1,N
1457643975.5,286046997.6,N
1457643995.4,286046994.1,N
1457644015.2,286046995.3,N
1457644035.0,286046994.0,N
1457644035.9,286046994.0,N
1457644055.8,286046994.4,N
1457644075.6,286046998.7,N
1457644095.4,286046996.9,N
1457644115.3,286046997.4,N
1457644135.1,286046998.4,N
1457644136.0,286046998.4,N
1457644155.8,286047002.4,N
1457644175.6,286047001.8,N
1457644195.5,286047005.9,N
1457644215.3,286047003.6,N
1457644235.1,286047001.9,N
1457644255.9,286047002.4,N
1457644275.7,286047003.1,N
1457644295.5,286047005.2,N
1457644315.4,286047005.5,N
1457644335.2,286047007.3,N
1457644355.0,286047008.2,N
1457644355.9,286047008.2,N
1457644375.8,286047009.3,N
1457644395.6,286047008.1,N
1457644415.4,286047011.5,N
1457644435.3,286047013.9,N
1457644455.1,286047014.1,N
1457644456.0,286047014.1,N
1457644475.8,286047014.6,N
1457644495.7,286047017.8,N
1457644515.5,286047017.5,N
1457644535.3,286047018.9,N
1457644555.2,286047019.0,N
1457644575.9,286047020.3,N
1457644595.7,286047020.9,N
1457644615.5,286047020.3,N
1457644635.4,286047018.3,N
1457644655.2,286047016.5,N
1457644675.0,286047017.0,N
1457644675.9,286047017.0,N
1457644695.8,286047014.3,N
1457644715.6,286047016.2,N
1457644735.4,286047014.1,N
1457644755.3,286047016.5,N
1457644775.1,286047018.0,Y
1457644795.8,286047007.6,P
1457644815.7,286047010.3,P
1457644835.5,286047009.4,P
1457644855.3,286047012.0,Y
1457644875.2,286047001.2,P
1457644895.9,286047002.5,N
1457644915.7,286047004.0,N
1457644935.6,286047001.3,N
1457644955.4,286047003.3,N
1457644975.2,286047006.1,N
1457644995.1,286047007.4,N
1457644996.0,286047007.4,N
1457645015.8,286047008.3,N
1457645035.6,286047010.5,Y
1457645055.5,286047002.9,P
1457645075.3,286046998.9,N
1457645095.1,286046998.7,N
1457645115.9,286047000.7,N
1457645135.7,286046999.8,N
1457645155.5,286047000.3,N
1457645175.3,286046999.9,N
1457645195.2,286047004.1,N
1457645215.0,286047002.5,N
1457645215.9,286047002.5,N
1457645235.7,286046998.7,N
1457645255.6,286046998.6,N
1457645275.4,286046999.5,N
1457645295.2,286047000.6,N
1457645315.1,286047001.9,N
1457645316.0,286047001.9,N
1457645335.8,286047000.3,N
1457645355.6,286046998.2,N
1457645375.5,286047001.0,N
1457645395.3,286046998.5,N
1457645415.1,286046997.0,N
1457645435.9,286046998.2,N
1457645455.7,286046996.5,N
1457645475.5,286046997.2,N
1457645495.4,286046997.4,N
1457645515.2,286046998.9,N
1457645535.0,286046997.9,N
1457645535.9,286046997.9,N
1457645555.8,286046997.6,N
1457645575.6,286046997.4,N
1457645595.4,286046998.6,N
1457645615.2,286046998.7,N
1457645635.1,286047000.8,N
1457645636.0,286047000.8,N
1457645655.8,286046999.1,N
1457645675.6,286046996.7,N
1457645695.5,286046999.6,N
1457645715.3,286046995.4,N
1457645735.1,286046997.8,N
1457645755.9,286046997.9,N
1457645775.7,286046999.0,N
1457645795.5,286047000.8,N
1457645815.4,286046996.6,N
1457645835.2,286046997.3,N
1457645855.0,286046997.6,N
1457645855.9,286046997.6,N
1457645875.8,286047000.7,N
1457645895.6,286046999.0,N
1457645915.4,286046996.8,N
1457645935.3,286046995.5,Y
1457645955.1,286046998.2,P
1457645956.0,286046998.2,P
1457645975.8,286046999.8,P
1457645995.7,286046998.3,N
1457646015.5,286047000.2,N
1457646035.3,286047000.8,N
1457646055.2,286046997.9,N
1457646075.9,286046999.0,N
1457646095.7,286046997.4,N
1457646115.5,286046999.5,N
1457646135.4,286046998.7,N
1457646155.2,286047002.7,N
1457646175.0,286047002.3,N
1457646175.9,286047002.3,N
1457646195.8,286047000.5,N
1457646215.6,286046999.9,N
1457646235.4,286046997.0,N
1457646255.3,286047000.3,N
1457646275.1,286046998.6,N
1457646276.0,286046998.6,N
1457646295.8,286047000.3,N
1457646315.7,286047002.3,N
1457646335.5,286047000.7,N
1457646355.3,286047000.7,N
1457646375.2,286047001.1,N
1457646395.9,286046999.4,N
1457646415.7,286046998.1,N
1457646435.6,286047000.4,N
1457646455.4,286047001.6,N
1457646475.2,286047002.2,N
1457646495.0,286046999.0,N
1457646495.9,286046999.0,N
1457646515.8,286047000.8,N
1457646535.6,286046999.9,N
1457646555.4,286047000.4,N
1457646575.3,286047000.5,N
1457646595.1,286046999.5,N
1457646615.8,286046999.3,N
1457646635.7,286047000.8,N
1457646655.5,286046998.1,N
1457646675.3,286046997.0,N
1457646695.2,286046998.0,N
1457646715.9,286046994.4,Y
1457646735.7,286046993.4,P
1457646755.6,286046997.0,N
1457646775.4,286046998.7,N
1457646795.2,286046997.8,N
1457646815.1,286046995.7,N
1457646816.0,286046995.7,N
1457646835.8,286046994.3,N
1457646855.6,286046993.2,Y
1457646875.5,286046995.3,P
1457646895.3,286046994.1,P
1457646915.1,286046991.4,P
1457646935.9,286046991.7,Y
1457646955.7,286046997.2,P
1457646975.5,286046998.6,N
1457646995.4,286046998.4,N
1457647015.2,286047000.9,N
1457647035.0,286046996.9,N
1457647035.9,286046996.9,N
1457647055.8,286046993.4,Y
1457647075.6,286046996.8,P
1457647095.4,286046998.3,P
1457647115.3,286046997.5,P
1457647135.1,286047001.1,N
1457647136.0,286047001.1,N
1457647155.8,286046999.6,N
1457647175.7,286046994.9,Y
1457647195.5,286046995.7,P
